Location: Arrodets-la-Barthe
(43.0306°N, 0.2829°E)
Time: 00:26:48
(UTC+00:00)

Cosmos 2344 - Pass Details

Date: 04 June 2022
Orbit: 1228 x 3015 km, 63.3° (Epoch: 04 July)

Event Time Altitude Azimuth Distance (km) Brightness Sun altitude
Rises 23:27:50 0° 305° (NW) 4,192 6.9 -24.1°
Reaches altitude 10° 23:31:33 10° 323° (NW) 3,315 6.6 -24.2°
Maximum altitude 23:36:57 19° 8° (N) 2,888 6.3 -24.3°
Drops below altitude 10° 23:43:11 10° 51° (NE) 3,893 6.5 -24.4°
Sets 23:48:06 0° 68° (ENE) 5,202 7.0 -24.4°
